Wind_Speed
15 14 15 16 18 23 23 19 17 18 19 20 22 22 22 21 21 20 20 19 18 17 17 17 16 14 12 12 13 14 12 11 11 10 10 12 13 15 15 15 15 17 17 17 17
18 17 16 18 19 20 19 24 25 20 18 21 23 23 23 22 22 21 20 20 19 18 18 18 17 15 14 14 14 15 15 15 13 12 12 13 14 16 17 18 19 19 19 19 20
20 19 18 19 19 21 19 22 24 24 24 21 21 22 23 22 22 21 21 21 20 20 20 19 18 17 15 16 15 16 17 19 18 16 16 16 17 18 19 20 21 21 21 21 22
25 23 22 20 21 22 23 23 21 20 18 18 18 21 21 22 21 21 21 21 21 21 20 20 20 19 17 17 17 16 18 21 22 20 20 20 21 21 21 21 23 23 22 22 23
30 29 26 24 20 23 24 24 23 22 23 22 21 20 21 21 21 21 22 22 22 22 22 21 21 20 18 18 19 18 20 21 23 23 23 24 24 23 23 23 23 23 23 22 23
29 31 29 28 25 24 25 26 26 24 24 25 24 22 22 21 22 24 23 22 21 22 22 21 22 20 20 20 19 19 20 21 23 23 24 25 25 24 26 24 24 23 25 24 23
31 29 29 31 29 27 25 27 26 26 25 25 24 23 24 26 23 22 22 21 21 22 22 22 22 21 21 21 20 20 20 22 23 24 24 24 22 25 25 25 25 25 26 25 25
34 32 29 29 30 30 27 26 28 27 27 29 27 26 25 24 21 21 21 23 23 23 23 23 22 21 20 21 22 22 20 21 22 24 24 25 21 26 26 26 25 26 28 27 28
37 34 33 29 28 30 28 29 29 30 28 28 27 29 27 26 24 24 24 23 23 24 24 24 22 22 21 24 26 24 22 24 25 27 27 28 24 27 26 26 27 27 28 29 28
40 38 36 33 29 30 29 26 28 30 30 29 28 29 28 27 27 25 25 25 25 25 25 24 24 26 28 29 28 28 29 30 31 31 32 29 26 28 27 27 27 28 30 30 29
44 41 40 37 34 32 33 31 28 28 31 31 29 29 30 29 30 29 28 28 28 26 26 26 26 26 30 30 30 32 33 33 35 35 35 34 29 33 30 25 27 29 30 30 31
47 44 45 41 38 36 36 35 34 32 33 34 35 33 32 32 31 30 30 29 29 26 26 25 25 27 26 25 26 27 29 31 33 34 36 34 28 29 32 26 29 32 31 32 31
51 50 48 46 42 39 37 39 38 37 36 37 37 37 37 35 33 31 31 30 28 27 26 25 24 24 24 26 28 29 30 31 32 33 33 34 21 24 27 28 29 31 33 31 31
54 55 53 49 47 43 41 42 40 39 41 40 40 42 39 38 38 32 32 32 31 29 30 27 24 25 26 27 29 30 32 32 32 32 30 29 17 16 26 29 32 34 33 30 32
57 58 58 57 51 48 48 46 45 42 48 45 45 42 41 41 35 36 35 35 33 32 32 29 28 29 29 29 31 31 35 33 31 32 28 25 23 8 27 32 34 34 32 32 32
60 59 59 60 58 56 54 53 50 49 57 51 49 44 42 41 38 38 38 38 37 37 36 35 32 31 29 30 33 31 32 36 32 32 27 23 22 11 27 29 34 36 34 33 33
65 62 64 57 60 60 62 61 59 58 58 56 55 46 42 40 38 40 39 40 42 41 39 36 37 35 35 32 31 30 30 35 37 35 32 22 19 13 28 32 34 34 33 33 33
64 67 65 65 64 62 61 65 64 62 60 57 59 55 49 41 38 35 37 40 41 42 41 43 42 39 38 35 31 31 31 33 40 38 37 24 15 20 27 33 34 35 35 35 34
67 68 68 69 70 66 66 65 63 64 60 61 62 59 56 49 47 42 38 37 36 37 40 44 46 41 41 38 35 31 31 30 34 40 41 31 16 16 26 30 34 35 35 35 34
69 65 65 61 65 68 67 68 67 65 64 62 61 62 61 56 53 50 44 43 39 40 41 44 45 41 40 41 41 36 33 34 33 42 44 37 22 17 25 28 34 34 35 34 35
72 66 60 58 55 65 64 67 68 66 62 65 66 67 62 61 56 55 53 48 44 42 46 46 45 46 43 43 40 41 39 37 36 42 42 42 33 19 27 28 32 36 36 35 33
60 63 49 58 62 56 65 65 64 62 65 65 67 68 65 64 61 60 58 51 51 48 49 47 53 54 47 48 48 45 43 40 41 42 46 46 39 17 26 27 35 39 40 37 32
61 61 63 62 58 66 59 54 62 65 63 64 64 66 67 65 65 65 58 57 56 55 54 53 56 57 57 55 52 49 41 44 44 48 51 48 40 21 23 25 36 41 43 40 34
62 65 66 62 60 63 57 57 55 59 61 61 63 61 65 71 66 65 61 54 54 59 61 61 58 59 59 54 50 54 48 48 50 54 51 52 43 26 21 24 34 42 48 45 37
65 67 66 64 60 60 60 57 49 53 59 59 59 59 60 62 59 58 59 59 57 56 56 61 62 60 59 60 60 58 53 54 56 54 58 52 45 26 20 32 38 46 48 48 42
69 68 69 65 66 69 69 64 57 54 52 56 55 48 54 52 51 46 44 45 50 53 50 53 56 58 57 57 59 59 58 62 61 60 59 55 52 28 31 32 38 44 50 45 46
74 73 70 69 71 71 68 64 62 61 52 54 54 48 51 48 45 40 42 44 45 43 44 45 49 53 56 58 58 59 59 61 63 63 59 60 48 39 34 31 37 46 47 47 50
Wind_Direction
236 234 230 229 224 227 228 226 220 225 229 233 233 236 238 242 244 244 248 252 256 262 262 262 262 258 256 257 263 271 270 267 269 273 287 292 297 302 303 299 297 295 296 297 299
237 238 237 233 228 227 226 227 232 232 231 239 238 237 240 242 244 247 249 252 256 260 263 264 264 261 256 255 264 266 269 268 268 275 282 289 298 303 302 301 298 297 293 294 298
240 238 238 240 236 230 230 224 230 239 241 238 242 245 241 241 246 247 249 252 257 262 264 263 264 264 258 256 261 263 267 272 270 274 280 287 294 295 300 302 303 296 292 294 295
238 241 243 242 240 238 235 228 229 234 233 237 238 241 244 242 242 247 252 254 258 262 263 263 262 262 261 262 265 269 269 269 273 275 279 284 289 296 299 300 300 294 290 290 292
239 241 242 246 245 244 240 235 235 239 240 237 239 244 242 241 247 251 252 254 256 258 256 257 262 262 264 266 268 271 270 272 272 276 280 284 289 293 298 300 298 292 289 289 290
237 242 239 242 244 246 245 240 238 238 244 242 242 243 239 244 250 252 249 251 255 256 256 257 259 264 268 269 273 273 275 274 276 278 279 282 288 296 297 301 298 295 291 294 295
238 236 241 240 240 241 242 242 239 237 234 236 240 242 240 249 245 245 248 252 252 252 253 256 259 264 269 274 273 273 276 277 278 277 278 284 294 292 297 297 297 295 295 298 299
241 239 237 240 239 241 240 243 242 240 240 242 243 239 238 240 246 252 255 255 253 252 254 257 262 265 270 275 275 275 276 276 275 275 281 285 289 290 293 295 295 293 295 299 296
240 239 239 236 240 238 238 240 241 242 242 241 240 240 244 242 245 253 253 257 260 260 260 260 260 260 268 278 277 276 274 275 276 279 279 282 286 287 290 290 289 291 293 294 300
240 240 240 238 236 238 236 236 242 243 244 244 242 241 241 246 248 248 249 250 255 260 263 264 265 268 276 279 283 282 282 280 281 277 277 279 281 284 283 285 287 287 288 293 295
238 239 240 239 237 237 238 237 241 246 247 243 242 242 240 238 242 243 246 249 252 255 261 265 270 275 277 282 283 287 290 290 285 282 278 279 282 285 283 284 280 282 284 288 287
238 239 241 239 238 237 238 240 241 241 245 249 242 240 240 242 241 243 244 248 249 253 257 263 269 273 279 282 286 289 291 296 295 288 283 282 285 282 285 282 280 279 283 282 288
238 238 238 240 240 240 238 240 242 243 242 246 248 245 242 243 242 244 245 246 246 250 253 256 265 271 281 287 288 287 292 296 298 295 292 290 296 282 281 281 275 276 275 281 286
240 239 238 237 240 240 238 239 240 243 247 244 246 246 244 243 243 245 248 248 247 250 253 254 264 268 276 283 286 289 294 294 295 296 299 296 301 282 272 273 272 268 275 282 285
233 239 240 238 239 239 240 238 238 240 246 246 243 247 244 245 246 245 250 250 249 250 253 254 256 264 272 278 282 289 291 289 289 294 296 299 297 249 253 262 271 277 277 278 282
234 240 237 240 239 237 238 241 241 239 246 245 243 243 245 246 246 245 246 249 250 250 253 258 261 263 268 273 280 287 287 287 286 288 290 297 293 249 257 264 269 274 282 284 284
236 235 232 230 234 237 236 238 237 240 244 248 249 245 245 246 245 247 246 249 253 254 256 262 264 265 264 269 275 280 281 288 289 288 291 292 290 265 264 268 272 279 282 281 284
233 235 233 232 233 230 234 233 237 241 244 251 252 252 247 247 247 246 249 247 252 256 258 259 261 266 267 266 265 265 278 284 290 287 286 289 303 280 273 275 278 281 283 286 293
235 235 236 236 237 235 235 235 240 241 240 244 252 255 252 247 250 251 251 252 249 255 259 259 259 262 263 261 259 266 273 273 278 283 284 287 293 284 285 279 276 277 283 291 295
242 239 235 231 237 239 234 237 241 241 239 238 245 249 252 252 249 247 249 251 252 251 252 252 257 254 254 259 261 265 268 269 273 280 283 286 283 291 288 286 284 282 284 288 293
232 234 232 233 234 234 234 238 239 239 240 243 246 244 246 252 251 252 252 249 246 244 250 252 251 256 256 258 259 263 265 266 270 272 279 282 282 280 288 294 291 287 284 288 291
237 232 233 248 238 232 234 238 239 239 240 240 242 245 246 243 250 254 253 251 248 243 245 247 250 252 252 254 254 258 264 268 272 275 273 272 280 284 289 290 287 287 290 291 292
236 241 237 231 250 242 235 236 238 234 236 239 241 242 244 247 246 247 247 250 250 248 244 244 247 250 251 251 253 260 264 268 269 268 268 273 280 290 273 281 281 285 287 290 292
233 237 242 243 245 247 243 238 236 236 234 237 239 239 242 246 245 245 245 246 248 249 247 246 244 248 253 255 255 258 259 260 264 266 273 270 276 280 279 271 276 279 283 287 291
234 237 242 246 248 244 250 249 246 244 241 239 240 242 245 247 250 249 248 244 244 246 253 250 252 252 252 255 257 261 262 262 262 266 267 272 274 286 281 267 271 276 283 287 293
239 238 239 242 242 243 244 248 252 248 252 246 247 249 245 248 251 254 248 246 247 246 250 250 252 254 253 257 259 259 259 259 260 261 267 275 272 294 273 263 265 270 274 284 288
239 239 239 241 241 242 245 248 250 249 245 245 242 247 243 249 249 253 253 246 240 239 242 247 249 250 249 253 255 249 251 258 264 264 269 267 278 282 276 271 261 261 269 276 278
Height
5782 5783 5784 5784 5785 5787 5789 5791 5793 5795 5797 5799 5802 5804 5806 5808 5810 5811 5812 5814 5814 5814 5815 5815 5816 5817 5817 5817 5816 5817 5817 5816 5817 5816 5815 5814 5814 5813 5812 5810 5809 5808 5807 5806 5805
5779 5780 5781 5783 5783 5784 5786 5788 5790 5792 5794 5797 5798 5800 5802 5804 5806 5808 5810 5810 5810 5811 5812 5813 5814 5814 5814 5815 5815 5814 5814 5814 5814 5814 5813 5812 5812 5811 5810 5808 5806 5805 5803 5802 5801
5776 5777 5779 5780 5780 5782 5783 5785 5787 5789 5790 5792 5794 5797 5799 5801 5803 5805 5806 5807 5807 5808 5809 5810 5811 5812 5812 5812 5812 5812 5812 5812 5811 5811 5811 5810 5809 5808 5807 5806 5804 5802 5799 5799 5797
5771 5773 5775 5777 5778 5779 5781 5782 5784 5786 5787 5789 5791 5793 5795 5797 5800 5801 5802 5803 5804 5805 5806 5807 5808 5809 5809 5810 5809 5809 5809 5808 5808 5808 5807 5806 5805 5805 5804 5803 5800 5798 5796 5795 5794
5766 5768 5770 5772 5773 5776 5778 5779 5780 5782 5784 5786 5788 5789 5792 5794 5795 5797 5799 5800 5800 5801 5801 5802 5804 5805 5805 5806 5806 5806 5806 5805 5805 5804 5803 5802 5802 5801 5799 5798 5796 5794 5791 5790 5789
5761 5763 5764 5767 5769 5771 5774 5775 5776 5777 5779 5782 5783 5786 5788 5789 5790 5793 5794 5795 5797 5798 5798 5799 5800 5801 5801 5802 5802 5802 5802 5802 5801 5800 5798 5798 5797 5796 5795 5793 5791 5789 5787 5786 5785
5754 5756 5759 5761 5763 5766 5768 5771 5772 5773 5775 5777 5779 5781 5783 5786 5787 5789 5790 5791 5793 5794 5794 5795 5796 5797 5798 5798 5797 5797 5797 5797 5797 5796 5794 5794 5795 5792 5791 5789 5786 5784 5783 5781 5780
5748 5751 5753 5755 5758 5760 5763 5765 5767 5769 5770 5772 5774 5777 5779 5780 5782 5784 5786 5788 5789 5790 5791 5792 5793 5793 5794 5793 5793 5793 5793 5792 5791 5790 5790 5789 5791 5787 5786 5784 5781 5779 5777 5776 5774
5740 5744 5747 5749 5752 5754 5756 5759 5762 5764 5765 5767 5769 5772 5774 5776 5777 5780 5782 5784 5787 5787 5788 5789 5789 5789 5790 5789 5789 5789 5788 5787 5787 5785 5784 5784 5786 5783 5781 5779 5776 5774 5772 5771 5771
5733 5736 5740 5742 5744 5748 5751 5753 5757 5759 5761 5762 5764 5767 5769 5772 5772 5775 5777 5779 5781 5782 5784 5785 5785 5785 5785 5784 5785 5784 5783 5782 5781 5780 5778 5778 5780 5777 5775 5774 5772 5769 5767 5766 5764
5724 5728 5732 5734 5737 5741 5745 5747 5752 5754 5755 5757 5759 5760 5763 5764 5767 5769 5771 5773 5775 5777 5779 5780 5781 5781 5780 5780 5779 5779 5778 5776 5774 5772 5771 5771 5774 5769 5768 5768 5764 5762 5760 5759 5756
5715 5719 5724 5726 5729 5733 5737 5741 5743 5746 5747 5749 5751 5753 5755 5758 5760 5762 5765 5768 5769 5771 5772 5775 5776 5775 5775 5775 5775 5774 5772 5770 5768 5766 5764 5765 5768 5764 5760 5762 5758 5754 5753 5751 5751
5705 5709 5713 5717 5721 5724 5729 5732 5735 5738 5738 5740 5743 5746 5749 5752 5753 5757 5759 5761 5764 5765 5766 5767 5770 5769 5769 5770 5769 5768 5766 5764 5762 5760 5759 5758 5763 5758 5755 5753 5751 5749 5746 5746 5744
5692 5697 5702 5706 5711 5716 5720 5722 5726 5730 5728 5732 5733 5735 5741 5744 5746 5751 5753 5756 5757 5759 5759 5761 5763 5763 5763 5763 5762 5763 5761 5759 5756 5754 5754 5754 5757 5755 5749 5745 5742 5740 5741 5742 5739
5681 5685 5691 5694 5698 5704 5710 5711 5715 5721 5717 5724 5723 5727 5732 5736 5744 5744 5747 5748 5751 5753 5754 5757 5757 5756 5757 5757 5756 5757 5755 5752 5750 5748 5750 5751 5751 5752 5743 5737 5734 5734 5735 5734 5732
5670 5674 5677 5681 5686 5691 5695 5700 5704 5711 5701 5706 5712 5718 5724 5728 5734 5737 5738 5741 5744 5744 5746 5748 5751 5751 5751 5750 5749 5750 5748 5745 5744 5741 5743 5747 5746 5748 5739 5735 5731 5729 5730 5728 5726
5658 5662 5666 5667 5671 5677 5682 5686 5691 5693 5695 5699 5702 5711 5716 5721 5724 5728 5731 5733 5735 5737 5740 5743 5742 5744 5744 5743 5743 5743 5742 5739 5737 5736 5735 5739 5741 5741 5733 5729 5726 5725 5724 5722 5721
5644 5646 5650 5653 5658 5664 5667 5669 5675 5682 5688 5693 5694 5701 5708 5714 5716 5719 5723 5724 5725 5728 5733 5733 5734 5736 5737 5737 5736 5734 5735 5735 5727 5728 5728 5732 5736 5734 5730 5726 5722 5719 5717 5717 5716
5625 5630 5634 5637 5642 5648 5653 5653 5665 5672 5678 5683 5688 5691 5698 5703 5709 5711 5714 5717 5720 5722 5724 5724 5723 5727 5727 5728 5728 5729 5728 5728 5723 5719 5718 5724 5729 5729 5723 5721 5717 5713 5712 5713 5710
5611 5616 5619 5621 5625 5633 5633 5642 5654 5659 5665 5669 5675 5679 5683 5691 5695 5699 5703 5707 5712 5714 5712 5711 5713 5715 5717 5719 5720 5719 5722 5720 5718 5710 5709 5713 5719 5721 5716 5716 5710 5708 5705 5704 5703
5594 5599 5604 5605 5610 5615 5620 5633 5641 5646 5653 5658 5662 5666 5671 5676 5682 5686 5690 5696 5697 5701 5701 5703 5706 5705 5707 5708 5711 5712 5710 5712 5711 5705 5703 5702 5708 5716 5711 5709 5705 5701 5700 5699 5697
5577 5579 5588 5590 5597 5601 5614 5625 5630 5634 5637 5642 5648 5653 5656 5661 5666 5671 5676 5683 5684 5687 5689 5693 5692 5691 5695 5696 5698 5699 5703 5705 5702 5700 5694 5692 5697 5709 5704 5703 5698 5694 5692 5694 5692
5562 5564 5568 5577 5577 5593 5605 5610 5615 5619 5624 5630 5635 5638 5644 5650 5651 5656 5661 5668 5671 5674 5675 5678 5678 5680 5681 5683 5687 5690 5696 5696 5692 5688 5681 5685 5691 5701 5699 5696 5690 5684 5682 5683 5684
5551 5554 5553 5560 5570 5580 5587 5596 5602 5608 5612 5615 5620 5624 5632 5635 5634 5639 5646 5653 5657 5659 5660 5661 5665 5666 5670 5676 5679 5678 5684 5683 5682 5675 5678 5674 5682 5693 5692 5689 5683 5678 5673 5673 5675
5536 5539 5544 5549 5560 5563 5571 5583 5593 5598 5599 5603 5607 5616 5621 5619 5623 5629 5634 5636 5639 5642 5646 5648 5653 5657 5660 5663 5664 5668 5671 5672 5667 5670 5663 5669 5671 5686 5685 5679 5675 5669 5665 5663 5664
5522 5528 5532 5543 5549 5551 5555 5571 5580 5583 5589 5594 5599 5610 5605 5606 5615 5619 5619 5619 5622 5628 5630 5635 5639 5644 5648 5650 5651 5654 5657 5652 5654 5655 5655 5660 5658 5678 5671 5670 5669 5664 5657 5656 5655
5508 5513 5518 5526 5532 5535 5550 5563 5566 5570 5581 5583 5590 5587 5592 5604 5602 5605 5604 5606 5610 5613 5615 5621 5625 5628 5631 5634 5635 5637 5640 5642 5644 5643 5648 5643 5655 5661 5660 5658 5655 5651 5650 5649 5644